Location: Helsinki
(60.1699°N, 24.9384°E)
Time: 14:45:35
(UTC+02:00)

Tiros 1 - Pass Details

Date: 02 October 2022
Orbit: 629 x 662 km, 48.4° (Epoch: 07 December)

Event Time Altitude Azimuth Distance (km) Brightness Sun altitude
Rises 02:28:04 0° 223° (SW) 2,986 - -31.4°
Reaches altitude 10° 02:31:08 10° 203° (SSW) 2,072 - -31.2°
Maximum altitude 02:34:09 17° 164° (SSE) 1,664 - -31.1°
Drops below altitude 10° 02:37:08 10° 124° (SE) 2,065 - -30.9°
Exits shadow 02:39:36 - 107° (ESE) 2,774 10.5 -30.8°
Sets 02:40:11 0° 105° (ESE) 2,970 10.7 -30.7°
